Regional Weather Roundup
Issued by NWS Boston, MA

Home | Current Version | Previous Version | Text Only | Print | Product List | Glossary On
Versions: 1 2 3 4 5 6 7 8 9 10 11 12 13 14 15 16 17 18 19 20 21 22 23 24 25 26 27 28 29 30 31 32 33 34 35 36 37 38 39 40 41 42 43 44 45 46 47 48 49 50
000
ASUS41 KBOX 031410
RWRBOX

REGIONAL WEATHER ROUNDUP
NATIONAL WEATHER SERVICE TAUNTON MA
1000 AM EDT SUN MAY 03 2015

NOTE:  "FAIR" INDICATES FEW OR NO CLOUDS BELOW 12,000 FEET WITH NO
SIGNIFICANT WEATHER AND/OR OBSTRUCTIONS TO VISIBILITY.  THE FOLLOWING
OBSERVATION LOCATIONS DO NOT REPORT PRESENT WEATHER...PROVINCETOWN...
SMITHFIELD...BLOCK ISLAND...KEENE...AND OXFORD.

MAZALL-031500-
EASTERN MASSACHUSETTS

CITY           SKY/WX    TMP DP  RH WIND       PRES   REMARKS
BOSTON         MOSUNNY   56  42  59 SE7       30.06S
BEVERLY        MOSUNNY   56  43  61 S7        30.05S
LAWRENCE       SUNNY     59  44  57 W5        30.07S
BEDFORD        SUNNY     60  42  51 CALM      30.04F
BLUE HILL        N/A     55  40  56 VRB3      30.05S
NORWOOD        CLOUDY    58  40  51 SW5       30.06S
MARSHFIELD     MOSUNNY   61  41  48 NE5       30.08S
PLYMOUTH       MOSUNNY   60  39  45 W7        30.07S
TAUNTON        CLOUDY    58  38  47 CALM      30.07S
NEW BEDFORD    CLOUDY    59  39  47 S10       30.07F
$$

MAZALL-031500-
CAPE COD AND THE ISLANDS

CITY           SKY/WX    TMP DP  RH WIND       PRES   REMARKS
FALMOUTH       MOSUNNY   63  37  39 MISG        N/A
HYANNIS        SUNNY     51  44  77 S12       30.09R
CHATHAM        SUNNY     51  44  77 VRB7      30.12R
PROVINCETOWN   SUNNY     55  43  62 S12       30.09S
NANTUCKET      SUNNY     49  41  74 S12       30.11S
MARTHAS VNYRD  MOSUNNY  N/A N/A N/A S10       30.10R
$$

MAZALL-031500-
CENTRAL AND WESTERN MASSACHUSETTS

CITY           SKY/WX    TMP DP  RH WIND       PRES   REMARKS
WORCESTER      SUNNY     66  39  37 NE3       30.05S
FITCHBURG      SUNNY     65  41  41 CALM      30.05F
ORANGE         SUNNY     60  40  47 CALM      30.05F
SPRINGFIELD    SUNNY     59  41  50 VRB3      30.05F
WESTFIELD      SUNNY     61  41  47 VRB5      30.06S
NORTH ADAMS    MOSUNNY   63  41  44 VRB3      30.06F
PITTSFIELD     SUNNY     66  39  37 W8        30.05F
$$

RIZALL-031500-
RHODE ISLAND

CITY           SKY/WX    TMP DP  RH WIND       PRES   REMARKS
PROVIDENCE     PTSUNNY   58  38  47 VRB6      30.07F
NEWPORT        CLOUDY    56  37  49 S7        30.08S
BLOCK ISLAND   SUNNY     54  39  58 SW12      30.10S
SMITHFIELD     PTSUNNY   57  36  44 S3        30.06S
WESTERLY       SUNNY     54  39  57 SW8       30.09F
$$

CTZALL-031500-
CONNECTICUT

CITY           SKY/WX    TMP DP  RH WIND       PRES   REMARKS
BRADLEY INTL   MOSUNNY   62  41  46 VRB3      30.06S
HARTFORD       SUNNY     60  41  49 MISG      30.07S
BRIDGEPORT     SUNNY     55  44  66 SW10      30.08F
DANBURY        SUNNY     64  40  41 CALM      30.08F
GROTON         SUNNY     54  40  59 SW9       30.08F
NEW HAVEN      SUNNY     54  46  74 SW6       30.08S
CHESTER        NOT AVBL
MERIDEN        SUNNY     62  40  44 CALM      30.07F
WILLIMANTIC    SUNNY     61  41  47 CALM      30.07F
OXFORD         SUNNY     61  43  51 CALM      30.08F
$$

MEZ002-015-021-024-NHZ003-005-008-011-012-014-VTZ005-008-031500-
NORTHERN NEW ENGLAND

CITY           SKY/WX    TMP DP  RH WIND       PRES   REMARKS
PORTLAND ME    MOSUNNY   51  45  79 NE7       30.07S
BANGOR ME      MOSUNNY   51  40  65 S6        30.06S
CONCORD NH     SUNNY     61  41  47 CALM      30.04F
MANCHESTER NH  SUNNY     64  41  42 N5        30.03F
NASHUA NH      SUNNY     61  43  51 CALM      30.06S
PORTSMOUTH NH  MOSUNNY   58  44  60 VRB1      30.03F
JAFFREY NH     SUNNY     65  40  39 CALM      30.05F
KEENE NH       SUNNY     61  43  51 CALM      30.06S
BURLINGTON VT  MOSUNNY   67  38  34 SW12      30.01S
MT. WASHINGTON MOSUNNY   39  28  65 NW17        N/A  WCI  30
$$

NYZ052-076-031500-
EASTERN NEW YORK

CITY           SKY/WX    TMP DP  RH WIND       PRES   REMARKS
ALBANY         MOSUNNY   65  42  43 SE5       30.06F
NEW YORK CITY  MOSUNNY   61  41  47 CALM      30.08F
$$

ANZALL-031500-
MARINE OBSERVATIONS

STATION/POSITION TIME  TEMP    WIND        PRES    VSBY  WAVE
                       AIR SEA DIR/SP/G                  HT/PER
                 (UTC) (F)     (DEG/KT/KT) (MB)    (MI)  (FT/S)
BOSTON BUOY      1350   47 46  130/  8/  8   N/A           3/ 9
BUZZARDS BAY     1400          190/ 15/ 15   N/A
NANTUCKET SOUND  1350   48 48  190/ 12/ 14   N/A           1
MASS BAY-STELLWA 1304   46 46  160/  6/  6   N/A    1 7/8  3/ 8
ISLE OF SHOALS   1400   47     160/  5/  6   N/A
S OF BLOCK IS    1308      45                N/A           3/ 9
$$

......................KEY.........................
  SKY/WX - SKY CONDITION/PRESENT WEATHER
  TMP    - TEMPERATURE IN FAHRENHEIT
  DWPT   - DEWPOINT IN FAHRENHEIT
  RH     - RELATIVE HUMIDITY IN PERCENT
  WIND   - DIRECTION AND SPEED IN MPH
  PRES   - MEAN SEA LEVEL PRESSURE IN INCHES OF HG
  WCI    - WIND CHILL INDEX
  VSB    - VISIBILITY IN MILES
  HX     - HEAT INDEX
  TC     - TEMPERATURE IN CELSIUS
  VRB    - VARIABLE WIND DIRECTION
  N/A    - NOT AVAILABLE


USA.gov is the U.S. government's official web portal to all federal, state and local government web resources and services.